Weather in Ust-Omchug

Russia / Magadan District     61°08′01″N   149°38′05″E
temp.,
°C
wind,
m/s
gust,
m/s
humid.,
%
clouds,
%
prec.,
mm/h
press.,
hPa
HPBL,
m
28 february, sun
sun2823:00−32ne119978 0.0 102919
02:00−33ne1110054 0.0 102919
05:00−33nne1110056 0.0 102719
08:00−33ne119951 0.0 102619
11:00−28ne119342 0.0 102463
14:00−25nne128755 0.0 1021206
17:00−25nne229167 0.0 102020
20:00−28nne229287 0.0 102120
1 march, mon
mon123:00−28n238990 0.0 102020
02:00−28n2387100 0.0 101823
05:00−29n2388100 0.0 101725
08:00−30n2290100 0.0 101721
11:00−27nnw3390100 0.0 1015125
14:00−25n3488100 0.0 1014245
17:00−26nnw3393100 0.0 101364
20:00−29n3390100 0.0 101623
2 march, tue
tue223:00−29n3387100 0.0 101725
02:00−29nne2386100 0.0 101822
05:00−29ne2284100 0.0 101920
08:00−29ne2283100 0.0 102120
11:00−27ne2279100 0.0 1021198
14:00−25ene2276100 0.0 1022359
17:00−25ene1284100 0.0 1022304
20:00−27ene1195100 0.0 102419
3 march, wed
wed323:00−28e1198100 0.1 102419
02:00−29ene1198100 0.1 102319
05:00−31ene1110095 0.1 102219
08:00−32ene119978 0.0 102019
11:00−27ne129589 0.1 1017136
14:00−23nne2391100 0.2 1012303
17:00−23n4497100 0.3 1009229
20:00−28n4599100 0.2 100688
4 march, thu
thu423:00−30nnw3598100 0.4 1003113
02:00−31nnw3398100 0.3 99979
05:00−31nw2398100 0.4 99755
08:00−32nnw3397100 0.1 99657
11:00−30nnw4592100 0.2 994400
14:00−29nnw4585100 0.1 992620
17:00−29nnw2390100 0.2 992409
20:00−31nne1198100 0.1 99319